Time,TemperatureF,DewpointF,PressureIn,WindDirection,WindDirectionDegrees,WindSpeedMPH,WindSpeedGustMPH,Humidity,HourlyPrecipIn,Conditions,Clouds,dailyrainin,SolarRadiationWatts/m^2,SoftwareType,DateUTC
2013-10-09 00:00:00,52.2,48.4,30.33,ENE,65,1.0,4.0,87,0.00,,,0.00,0,Wunderground v.1.15,2013-10-09 04:00:00,
2013-10-09 00:05:00,52.4,48.6,30.33,ENE,65,1.0,4.0,87,0.00,,,0.00,0,Wunderground v.1.15,2013-10-09 04:05:00,
2013-10-09 00:10:00,52.6,48.5,30.33,ENE,65,1.0,1.0,86,0.00,,,0.00,0,Wunderground v.1.15,2013-10-09 04:10:00,
2013-10-09 00:15:00,52.8,48.4,30.33,NE,45,1.0,2.0,85,0.00,,,0.00,0,Wunderground v.1.15,2013-10-09 04:15:00,
2013-10-09 00:20:00,53.0,48.6,30.33,NE,48,2.0,3.0,85,0.00,,,0.00,0,Wunderground v.1.15,2013-10-09 04:20:00,
2013-10-09 00:25:00,53.1,48.7,30.33,NE,49,2.0,3.0,85,0.00,,,0.00,0,Wunderground v.1.15,2013-10-09 04:25:00,
2013-10-09 00:30:00,53.3,48.6,30.33,NE,48,2.0,2.0,84,0.00,,,0.00,0,Wunderground v.1.15,2013-10-09 04:30:00,
2013-10-09 00:35:00,53.4,48.7,30.34,NE,48,1.0,2.0,84,0.00,,,0.00,0,Wunderground v.1.15,2013-10-09 04:35:00,
2013-10-09 00:40:00,53.5,48.8,30.34,NE,48,0.0,1.0,84,0.00,,,0.00,0,Wunderground v.1.15,2013-10-09 04:40:00,
2013-10-09 00:45:00,53.6,48.6,30.33,NE,51,1.0,6.0,83,0.00,,,0.00,0,Wunderground v.1.15,2013-10-09 04:45:00,
2013-10-09 00:50:00,53.6,48.6,30.33,NE,51,2.0,2.0,83,0.00,,,0.00,0,Wunderground v.1.15,2013-10-09 04:50:00,
2013-10-09 00:55:00,53.6,48.2,30.33,NE,37,2.0,2.0,82,0.00,,,0.00,0,Wunderground v.1.15,2013-10-09 04:55:00,
2013-10-09 01:00:00,53.7,48.3,30.33,NE,37,1.0,2.0,82,0.00,,,0.00,0,Wunderground v.1.15,2013-10-09 05:00:00,
2013-10-09 01:05:00,53.7,48.0,30.33,NE,37,1.0,2.0,81,0.00,,,0.00,0,Wunderground v.1.15,2013-10-09 05:05:00,
2013-10-09 01:10:00,53.8,48.4,30.33,NE,37,1.0,3.0,82,0.00,,,0.00,0,Wunderground v.1.15,2013-10-09 05:10:00,
2013-10-09 01:15:00,53.8,48.1,30.34,NE,38,0.0,5.0,81,0.00,,,0.00,0,Wunderground v.1.15,2013-10-09 05:15:00,
2013-10-09 01:20:00,53.9,48.2,30.34,NNE,20,2.0,2.0,81,0.00,,,0.00,0,Wunderground v.1.15,2013-10-09 05:20:00,
2013-10-09 01:25:00,53.9,47.9,30.34,NE,44,2.0,2.0,80,0.00,,,0.00,0,Wunderground v.1.15,2013-10-09 05:25:00,
2013-10-09 01:30:00,54.0,48.0,30.33,NE,48,2.0,2.0,80,0.00,,,0.00,0,Wunderground v.1.15,2013-10-09 05:30:00,
2013-10-09 01:35:00,54.1,48.1,30.34,NE,48,1.0,2.0,80,0.00,,,0.00,0,Wunderground v.1.15,2013-10-09 05:35:00,
2013-10-09 01:40:00,54.2,47.8,30.34,NE,49,1.0,1.0,79,0.00,,,0.00,0,Wunderground v.1.15,2013-10-09 05:40:00,
2013-10-09 01:45:00,54.2,47.8,30.34,NE,49,1.0,3.0,79,0.00,,,0.00,0,Wunderground v.1.15,2013-10-09 05:45:00,
2013-10-09 01:50:00,54.4,48.0,30.34,ENE,69,2.0,2.0,79,0.00,,,0.00,0,Wunderground v.1.15,2013-10-09 05:50:00,
2013-10-09 01:55:00,54.6,48.2,30.34,ENE,69,1.0,2.0,79,0.00,,,0.00,0,Wunderground v.1.15,2013-10-09 05:55:00,
2013-10-09 02:00:00,54.7,48.3,30.34,ENE,73,1.0,1.0,79,0.00,,,0.00,0,Wunderground v.1.15,2013-10-09 06:00:00,
2013-10-09 02:05:00,54.9,48.5,30.35,ENE,68,2.0,2.0,79,0.00,,,0.00,0,Wunderground v.1.15,2013-10-09 06:05:00,
2013-10-09 02:10:00,55.0,48.6,30.35,ENE,68,1.0,1.0,79,0.00,,,0.00,0,Wunderground v.1.15,2013-10-09 06:10:00,
2013-10-09 02:15:00,55.1,48.7,30.35,ENE,68,0.0,1.0,79,0.00,,,0.00,0,Wunderground v.1.15,2013-10-09 06:15:00,
2013-10-09 02:20:00,55.2,48.8,30.34,ENE,68,1.0,1.0,79,0.00,,,0.00,0,Wunderground v.1.15,2013-10-09 06:20:00,
2013-10-09 02:25:00,55.1,48.7,30.35,ENE,68,1.0,1.0,79,0.00,,,0.00,0,Wunderground v.1.15,2013-10-09 06:25:00,
2013-10-09 02:30:00,55.0,48.6,30.35,ENE,67,0.0,0.0,79,0.00,,,0.00,0,Wunderground v.1.15,2013-10-09 06:30:00,
2013-10-09 02:35:00,55.0,48.3,30.35,ENE,69,1.0,1.0,78,0.00,,,0.00,0,Wunderground v.1.15,2013-10-09 06:35:00,
2013-10-09 02:40:00,54.9,48.2,30.35,ENE,69,1.0,1.0,78,0.00,,,0.00,0,Wunderground v.1.15,2013-10-09 06:40:00,
2013-10-09 02:45:00,54.7,47.6,30.35,ENE,69,0.0,1.0,77,0.00,,,0.00,0,Wunderground v.1.15,2013-10-09 06:45:00,
2013-10-09 02:50:00,54.6,47.5,30.35,ENE,68,1.0,1.0,77,0.00,,,0.00,0,Wunderground v.1.15,2013-10-09 06:50:00,
2013-10-09 02:55:00,54.5,47.4,30.34,ENE,69,1.0,1.0,77,0.00,,,0.00,0,Wunderground v.1.15,2013-10-09 06:55:00,
2013-10-09 03:00:00,54.4,47.0,30.34,ENE,70,2.0,2.0,76,0.00,,,0.00,0,Wunderground v.1.15,2013-10-09 07:00:00,
2013-10-09 03:05:00,54.3,46.9,30.34,ENE,70,2.0,2.0,76,0.00,,,0.00,0,Wunderground v.1.15,2013-10-09 07:05:00,
2013-10-09 03:10:00,54.2,46.4,30.34,NE,55,2.0,2.0,75,0.00,,,0.00,0,Wunderground v.1.15,2013-10-09 07:10:00,
2013-10-09 03:15:00,54.3,46.5,30.34,NE,55,2.0,3.0,75,0.00,,,0.00,0,Wunderground v.1.15,2013-10-09 07:15:00,
2013-10-09 03:20:00,54.4,46.6,30.34,NE,55,2.0,2.0,75,0.00,,,0.00,0,Wunderground v.1.15,2013-10-09 07:20:00,
2013-10-09 03:30:00,54.5,47.1,30.34,NE,55,1.0,1.0,76,0.00,,,0.00,0,Wunderground v.1.15,2013-10-09 07:30:00,
2013-10-09 03:35:00,54.6,47.2,30.34,NE,55,1.0,1.0,76,0.00,,,0.00,0,Wunderground v.1.15,2013-10-09 07:35:00,
2013-10-09 03:40:00,54.6,47.2,30.34,NE,55,1.0,1.0,76,0.00,,,0.00,0,Wunderground v.1.15,2013-10-09 07:40:00,
2013-10-09 03:45:00,54.6,47.5,30.34,NE,55,1.0,1.0,77,0.00,,,0.00,0,Wunderground v.1.15,2013-10-09 07:45:00,
2013-10-09 03:50:00,54.6,47.5,30.34,NE,50,1.0,1.0,77,0.00,,,0.00,0,Wunderground v.1.15,2013-10-09 07:50:00,
2013-10-09 03:55:00,54.6,47.5,30.34,ENE,76,2.0,2.0,77,0.00,,,0.00,0,Wunderground v.1.15,2013-10-09 07:55:00,
2013-10-09 04:00:00,54.5,47.1,30.34,NE,55,2.0,8.0,76,0.00,,,0.00,0,Wunderground v.1.15,2013-10-09 08:00:00,
2013-10-09 04:05:00,54.5,47.1,30.34,NE,34,2.0,8.0,76,0.00,,,0.00,0,Wunderground v.1.15,2013-10-09 08:05:00,
2013-10-09 04:10:00,54.4,46.6,30.34,East,90,2.0,2.0,75,0.00,,,0.00,0,Wunderground v.1.15,2013-10-09 08:10:00,
2013-10-09 04:15:00,54.5,46.7,30.34,ENE,64,3.0,3.0,75,0.00,,,0.00,0,Wunderground v.1.15,2013-10-09 08:15:00,
2013-10-09 04:20:00,54.5,46.7,30.34,NE,51,3.0,3.0,75,0.00,,,0.00,0,Wunderground v.1.15,2013-10-09 08:20:00,
2013-10-09 04:25:00,54.5,46.7,30.34,NE,48,3.0,3.0,75,0.00,,,0.00,0,Wunderground v.1.15,2013-10-09 08:25:00,
2013-10-09 04:30:00,54.6,46.8,30.34,ENE,78,3.0,3.0,75,0.00,,,0.00,0,Wunderground v.1.15,2013-10-09 08:30:00,
2013-10-09 04:35:00,54.6,46.8,30.34,ENE,64,2.0,10.0,75,0.00,,,0.00,0,Wunderground v.1.15,2013-10-09 08:35:00,
2013-10-09 04:40:00,54.6,46.8,30.34,NE,53,3.0,5.0,75,0.00,,,0.00,0,Wunderground v.1.15,2013-10-09 08:40:00,
2013-10-09 04:45:00,54.6,47.2,30.34,ENE,74,3.0,5.0,76,0.00,,,0.00,0,Wunderground v.1.15,2013-10-09 08:45:00,
2013-10-09 04:50:00,54.5,47.1,30.34,NE,53,3.0,3.0,76,0.00,,,0.00,0,Wunderground v.1.15,2013-10-09 08:50:00,
2013-10-09 04:55:00,54.4,46.6,30.34,NE,34,4.0,4.0,75,0.00,,,0.00,0,Wunderground v.1.15,2013-10-09 08:55:00,
2013-10-09 05:00:00,54.3,46.9,30.34,NE,44,3.0,4.0,76,0.00,,,0.00,0,Wunderground v.1.15,2013-10-09 09:00:00,
2013-10-09 05:05:00,54.3,46.9,30.34,ENE,63,3.0,4.0,76,0.00,,,0.00,0,Wunderground v.1.15,2013-10-09 09:05:00,
2013-10-09 05:10:00,54.2,46.8,30.34,ENE,61,3.0,3.0,76,0.00,,,0.00,0,Wunderground v.1.15,2013-10-09 09:10:00,
2013-10-09 05:15:00,54.2,46.8,30.35,ENE,65,3.0,3.0,76,0.00,,,0.00,0,Wunderground v.1.15,2013-10-09 09:15:00,
2013-10-09 05:20:00,54.1,46.7,30.35,East,80,2.0,3.0,76,0.00,,,0.00,0,Wunderground v.1.15,2013-10-09 09:20:00,
2013-10-09 05:25:00,54.1,47.0,30.35,ENE,68,3.0,4.0,77,0.00,,,0.00,0,Wunderground v.1.15,2013-10-09 09:25:00,
2013-10-09 05:30:00,54.0,47.0,30.35,East,90,4.0,4.0,77,0.00,,,0.00,0,Wunderground v.1.15,2013-10-09 09:30:00,
2013-10-09 05:35:00,53.9,46.9,30.36,East,90,2.0,4.0,77,0.00,,,0.00,0,Wunderground v.1.15,2013-10-09 09:35:00,
2013-10-09 05:40:00,53.9,46.9,30.36,East,90,0.0,2.0,77,0.00,,,0.00,0,Wunderground v.1.15,2013-10-09 09:40:00,
2013-10-09 05:45:00,53.8,46.8,30.36,East,90,1.0,2.0,77,0.00,,,0.00,0,Wunderground v.1.15,2013-10-09 09:45:00,
2013-10-09 05:50:00,53.7,47.0,30.36,East,90,1.0,1.0,78,0.00,,,0.00,0,Wunderground v.1.15,2013-10-09 09:50:00,
2013-10-09 05:55:00,53.6,46.9,30.36,East,90,0.0,1.0,78,0.00,,,0.00,0,Wunderground v.1.15,2013-10-09 09:55:00,
2013-10-09 06:00:00,53.5,46.8,30.36,East,90,0.0,0.0,78,0.00,,,0.00,0,Wunderground v.1.15,2013-10-09 10:00:00,
2013-10-09 06:05:00,53.3,47.0,30.36,East,90,0.0,1.0,79,0.00,,,0.00,0,Wunderground v.1.15,2013-10-09 10:05:00,
2013-10-09 06:10:00,53.2,46.9,30.35,East,90,0.0,0.0,79,0.00,,,0.00,0,Wunderground v.1.15,2013-10-09 10:10:00,
2013-10-09 06:15:00,52.9,46.6,30.35,East,90,0.0,0.0,79,0.00,,,0.00,0,Wunderground v.1.15,2013-10-09 10:15:00,
2013-10-09 06:20:00,52.7,46.7,30.35,East,90,0.0,0.0,80,0.00,,,0.00,0,Wunderground v.1.15,2013-10-09 10:20:00,
2013-10-09 06:25:00,52.5,46.5,30.36,East,90,0.0,0.0,80,0.00,,,0.00,0,Wunderground v.1.15,2013-10-09 10:25:00,
2013-10-09 06:30:00,52.2,46.2,30.36,East,90,0.0,0.0,80,0.00,,,0.00,0,Wunderground v.1.15,2013-10-09 10:30:00,
2013-10-09 06:35:00,51.9,46.3,30.36,East,90,0.0,0.0,81,0.00,,,0.00,0,Wunderground v.1.15,2013-10-09 10:35:00,
2013-10-09 06:40:00,51.7,46.4,30.36,East,90,0.0,0.0,82,0.00,,,0.00,0,Wunderground v.1.15,2013-10-09 10:40:00,
2013-10-09 06:45:00,51.4,46.1,30.36,East,90,0.0,0.0,82,0.00,,,0.00,0,Wunderground v.1.15,2013-10-09 10:45:00,
2013-10-09 06:55:00,50.8,45.5,30.36,East,90,0.0,0.0,82,0.00,,,0.00,0,Wunderground v.1.15,2013-10-09 10:55:00,
2013-10-09 07:00:00,50.5,45.5,30.36,East,90,0.0,0.0,83,0.00,,,0.00,0,Wunderground v.1.15,2013-10-09 11:00:00,
2013-10-09 07:05:00,50.2,45.2,30.37,East,90,0.0,0.0,83,0.00,,,0.00,5,Wunderground v.1.15,2013-10-09 11:05:00,
2013-10-09 07:10:00,50.0,45.0,30.36,East,90,0.0,0.0,83,0.00,,,0.00,9,Wunderground v.1.15,2013-10-09 11:10:00,
2013-10-09 07:15:00,49.7,44.7,30.37,East,90,0.0,0.0,83,0.00,,,0.00,12,Wunderground v.1.15,2013-10-09 11:15:00,
2013-10-09 07:20:00,49.5,44.9,30.37,East,90,0.0,3.0,84,0.00,,,0.00,18,Wunderground v.1.15,2013-10-09 11:20:00,
2013-10-09 07:25:00,49.3,44.7,30.37,East,90,1.0,3.0,84,0.00,,,0.00,25,Wunderground v.1.15,2013-10-09 11:25:00,
2013-10-09 07:30:00,49.4,45.4,30.38,East,90,1.0,1.0,86,0.00,,,0.00,25,Wunderground v.1.15,2013-10-09 11:30:00,
2013-10-09 07:35:00,49.5,45.8,30.38,East,87,2.0,3.0,87,0.00,,,0.00,23,Wunderground v.1.15,2013-10-09 11:35:00,
2013-10-09 07:40:00,49.8,46.4,30.38,East,87,2.0,2.0,88,0.00,,,0.00,35,Wunderground v.1.15,2013-10-09 11:40:00,
2013-10-09 07:45:00,50.1,47.0,30.38,ENE,65,2.0,4.0,89,0.00,,,0.00,47,Wunderground v.1.15,2013-10-09 11:45:00,
2013-10-09 07:50:00,50.6,47.5,30.38,ENE,67,2.0,2.0,89,0.00,,,0.00,53,Wunderground v.1.15,2013-10-09 11:50:00,
2013-10-09 07:55:00,50.9,47.8,30.38,ENE,64,2.0,4.0,89,0.00,,,0.00,56,Wunderground v.1.15,2013-10-09 11:55:00,
2013-10-09 08:00:00,51.5,48.7,30.38,ENE,70,2.0,5.0,90,0.00,,,0.00,74,Wunderground v.1.15,2013-10-09 12:00:00,
2013-10-09 08:05:00,52.2,49.4,30.38,East,90,3.0,8.0,90,0.00,,,0.00,84,Wunderground v.1.15,2013-10-09 12:05:00,
2013-10-09 08:10:00,52.7,49.5,30.39,NE,40,4.0,8.0,89,0.00,,,0.00,90,Wunderground v.1.15,2013-10-09 12:10:00,
2013-10-09 08:15:00,53.2,50.0,30.39,NE,42,4.0,8.0,89,0.00,,,0.00,97,Wunderground v.1.15,2013-10-09 12:15:00,
2013-10-09 08:20:00,53.7,50.5,30.40,East,91,4.0,4.0,89,0.00,,,0.00,105,Wunderground v.1.15,2013-10-09 12:20:00,
2013-10-09 08:25:00,54.0,50.5,30.40,East,92,5.0,7.0,88,0.00,,,0.00,118,Wunderground v.1.15,2013-10-09 12:25:00,
2013-10-09 08:30:00,54.4,50.9,30.40,ENE,71,4.0,4.0,88,0.00,,,0.00,113,Wunderground v.1.15,2013-10-09 12:30:00,
2013-10-09 08:35:00,54.7,50.9,30.41,ENE,57,3.0,4.0,87,0.00,,,0.00,107,Wunderground v.1.15,2013-10-09 12:35:00,
2013-10-09 08:40:00,54.9,50.8,30.40,ENE,64,3.0,5.0,86,0.00,,,0.00,107,Wunderground v.1.15,2013-10-09 12:40:00,
2013-10-09 08:45:00,55.0,50.6,30.41,NE,38,4.0,5.0,85,0.00,,,0.00,114,Wunderground v.1.15,2013-10-09 12:45:00,
2013-10-09 08:50:00,55.2,50.4,30.41,NE,55,6.0,6.0,84,0.00,,,0.00,135,Wunderground v.1.15,2013-10-09 12:50:00,
2013-10-09 08:55:00,55.3,50.5,30.41,ENE,67,5.0,6.0,84,0.00,,,0.00,148,Wunderground v.1.15,2013-10-09 12:55:00,
2013-10-09 09:00:00,55.4,50.3,30.40,NE,39,5.0,8.0,83,0.00,,,0.00,155,Wunderground v.1.15,2013-10-09 13:00:00,
2013-10-09 09:05:00,55.5,50.1,30.40,NE,55,5.0,8.0,82,0.00,,,0.00,163,Wunderground v.1.15,2013-10-09 13:05:00,
2013-10-09 09:10:00,55.6,50.2,30.41,ENE,74,5.0,5.0,82,0.00,,,0.00,174,Wunderground v.1.15,2013-10-09 13:10:00,
2013-10-09 09:15:00,55.7,50.0,30.40,East,89,5.0,5.0,81,0.00,,,0.00,183,Wunderground v.1.15,2013-10-09 13:15:00,
2013-10-09 09:20:00,55.9,50.2,30.41,East,98,5.0,8.0,81,0.00,,,0.00,200,Wunderground v.1.15,2013-10-09 13:20:00,
2013-10-09 09:25:00,55.9,49.8,30.41,ENE,61,6.0,8.0,80,0.00,,,0.00,206,Wunderground v.1.15,2013-10-09 13:25:00,
2013-10-09 09:30:00,56.0,49.9,30.41,NE,40,7.0,7.0,80,0.00,,,0.00,211,Wunderground v.1.15,2013-10-09 13:30:00,
2013-10-09 09:35:00,56.1,50.0,30.41,East,86,7.0,7.0,80,0.00,,,0.00,214,Wunderground v.1.15,2013-10-09 13:35:00,
2013-10-09 09:40:00,56.2,50.1,30.41,NNE,19,6.0,7.0,80,0.00,,,0.00,223,Wunderground v.1.15,2013-10-09 13:40:00,
2013-10-09 09:45:00,56.3,50.2,30.41,East,87,7.0,11.0,80,0.00,,,0.00,227,Wunderground v.1.15,2013-10-09 13:45:00,
2013-10-09 09:50:00,56.4,50.0,30.41,ENE,74,7.0,7.0,79,0.00,,,0.00,214,Wunderground v.1.15,2013-10-09 13:50:00,
2013-10-09 09:55:00,56.4,50.0,30.41,ENE,73,7.0,8.0,79,0.00,,,0.00,227,Wunderground v.1.15,2013-10-09 13:55:00,
2013-10-09 10:00:00,56.5,50.1,30.41,East,92,6.0,6.0,79,0.00,,,0.00,220,Wunderground v.1.15,2013-10-09 14:00:00,
2013-10-09 10:05:00,56.6,50.2,30.41,NNE,28,5.0,6.0,79,0.00,,,0.00,234,Wunderground v.1.15,2013-10-09 14:05:00,
2013-10-09 10:10:00,56.9,50.5,30.41,ENE,72,4.0,7.0,79,0.00,,,0.00,213,Wunderground v.1.15,2013-10-09 14:10:00,
2013-10-09 10:15:00,57.0,50.5,30.41,ESE,121,4.0,8.0,79,0.00,,,0.00,258,Wunderground v.1.15,2013-10-09 14:15:00,
2013-10-09 10:20:00,57.1,50.6,30.41,NNE,22,5.0,5.0,79,0.00,,,0.00,246,Wunderground v.1.15,2013-10-09 14:20:00,
2013-10-09 10:25:00,57.3,50.5,30.41,NE,46,6.0,7.0,78,0.00,,,0.00,295,Wunderground v.1.15,2013-10-09 14:25:00,
2013-10-09 10:30:00,57.4,50.6,30.41,NNE,23,7.0,7.0,78,0.00,,,0.00,260,Wunderground v.1.15,2013-10-09 14:30:00,
2013-10-09 10:35:00,57.6,50.8,30.41,East,95,6.0,7.0,78,0.00,,,0.00,285,Wunderground v.1.15,2013-10-09 14:35:00,
2013-10-09 10:40:00,57.7,50.5,30.41,East,84,6.0,6.0,77,0.00,,,0.00,283,Wunderground v.1.15,2013-10-09 14:40:00,
2013-10-09 10:45:00,57.8,50.6,30.40,ENE,69,6.0,16.0,77,0.00,,,0.00,255,Wunderground v.1.15,2013-10-09 14:45:00,
2013-10-09 10:50:00,57.9,50.4,30.40,ESE,120,6.0,6.0,76,0.00,,,0.00,265,Wunderground v.1.15,2013-10-09 14:50:00,
2013-10-09 10:55:00,58.0,50.8,30.40,East,84,7.0,7.0,77,0.00,,,0.00,221,Wunderground v.1.15,2013-10-09 14:55:00,
2013-10-09 11:00:00,57.9,50.4,30.40,NE,53,8.0,8.0,76,0.00,,,0.00,239,Wunderground v.1.15,2013-10-09 15:00:00,
2013-10-09 11:05:00,57.8,49.9,30.40,ESE,106,8.0,12.0,75,0.00,,,0.00,257,Wunderground v.1.15,2013-10-09 15:05:00,
2013-10-09 11:10:00,57.8,49.9,30.40,East,89,8.0,10.0,75,0.00,,,0.00,253,Wunderground v.1.15,2013-10-09 15:10:00,
2013-10-09 11:15:00,57.9,50.4,30.40,NE,46,9.0,10.0,76,0.00,,,0.00,253,Wunderground v.1.15,2013-10-09 15:15:00,
2013-10-09 11:20:00,58.1,50.9,30.40,North,10,7.0,7.0,77,0.00,,,0.00,294,Wunderground v.1.15,2013-10-09 15:20:00,
2013-10-09 11:25:00,58.1,50.6,30.40,East,81,7.0,10.0,76,0.00,,,0.00,334,Wunderground v.1.15,2013-10-09 15:25:00,
2013-10-09 11:30:00,58.3,51.1,30.40,East,91,6.0,10.0,77,0.00,,,0.00,385,Wunderground v.1.15,2013-10-09 15:30:00,
2013-10-09 11:35:00,58.6,51.1,30.40,East,96,4.0,10.0,76,0.00,,,0.00,385,Wunderground v.1.15,2013-10-09 15:35:00,
2013-10-09 11:40:00,59.0,51.4,30.40,NNE,32,5.0,10.0,76,0.00,,,0.00,401,Wunderground v.1.15,2013-10-09 15:40:00,
2013-10-09 11:45:00,59.2,51.3,30.40,East,87,7.0,10.0,75,0.00,,,0.00,427,Wunderground v.1.15,2013-10-09 15:45:00,
2013-10-09 11:50:00,59.3,51.4,30.39,NE,35,7.0,7.0,75,0.00,,,0.00,455,Wunderground v.1.15,2013-10-09 15:50:00,
2013-10-09 11:55:00,59.4,51.8,30.40,North,5,7.0,13.0,76,0.00,,,0.00,485,Wunderground v.1.15,2013-10-09 15:55:00,
2013-10-09 12:00:00,59.6,52.0,30.40,North,10,9.0,9.0,76,0.00,,,0.00,387,Wunderground v.1.15,2013-10-09 16:00:00,
2013-10-09 12:05:00,59.7,51.8,30.40,East,94,8.0,14.0,75,0.00,,,0.00,350,Wunderground v.1.15,2013-10-09 16:05:00,
2013-10-09 12:10:00,59.6,51.7,30.40,ENE,65,8.0,13.0,75,0.00,,,0.00,367,Wunderground v.1.15,2013-10-09 16:10:00,
2013-10-09 12:15:00,59.7,51.8,30.40,SSE,153,8.0,13.0,75,0.00,,,0.00,610,Wunderground v.1.15,2013-10-09 16:15:00,
2013-10-09 12:20:00,60.1,52.1,30.40,ESE,116,7.0,15.0,75,0.00,,,0.00,422,Wunderground v.1.15,2013-10-09 16:20:00,
2013-10-09 12:25:00,60.2,51.5,30.40,North,360,7.0,15.0,73,0.00,,,0.00,322,Wunderground v.1.15,2013-10-09 16:25:00,
2013-10-09 12:30:00,60.3,51.6,30.40,ENE,69,6.0,9.0,73,0.00,,,0.00,329,Wunderground v.1.15,2013-10-09 16:30:00,
2013-10-09 12:35:00,60.4,51.3,30.40,ENE,58,6.0,9.0,72,0.00,,,0.00,429,Wunderground v.1.15,2013-10-09 16:35:00,
2013-10-09 12:40:00,60.5,51.4,30.39,ESE,111,6.0,10.0,72,0.00,,,0.00,431,Wunderground v.1.15,2013-10-09 16:40:00,
2013-10-09 12:45:00,60.7,51.6,30.39,ENE,78,7.0,10.0,72,0.00,,,0.00,424,Wunderground v.1.15,2013-10-09 16:45:00,
2013-10-09 12:50:00,60.8,51.3,30.39,NE,54,7.0,7.0,71,0.00,,,0.00,348,Wunderground v.1.15,2013-10-09 16:50:00,
2013-10-09 12:55:00,60.7,51.2,30.39,East,98,7.0,8.0,71,0.00,,,0.00,445,Wunderground v.1.15,2013-10-09 16:55:00,
2013-10-09 13:00:00,60.7,51.2,30.39,NE,46,8.0,20.0,71,0.00,,,0.00,406,Wunderground v.1.15,2013-10-09 17:00:00,
2013-10-09 13:05:00,60.7,51.6,30.39,NNE,22,8.0,20.0,72,0.00,,,0.00,515,Wunderground v.1.15,2013-10-09 17:05:00,
2013-10-09 13:10:00,60.9,51.8,30.38,ENE,74,7.0,8.0,72,0.00,,,0.00,510,Wunderground v.1.15,2013-10-09 17:10:00,
2013-10-09 13:15:00,61.1,52.0,30.38,NE,55,5.0,8.0,72,0.00,,,0.00,399,Wunderground v.1.15,2013-10-09 17:15:00,
2013-10-09 13:20:00,61.3,51.8,30.38,ESE,111,6.0,6.0,71,0.00,,,0.00,413,Wunderground v.1.15,2013-10-09 17:20:00,
2013-10-09 13:25:00,61.5,52.0,30.38,ESE,103,6.0,14.0,71,0.00,,,0.00,334,Wunderground v.1.15,2013-10-09 17:25:00,
2013-10-09 13:30:00,61.6,51.7,30.38,NNE,30,6.0,6.0,70,0.00,,,0.00,313,Wunderground v.1.15,2013-10-09 17:30:00,
2013-10-09 13:35:00,61.4,51.1,30.38,ENE,61,8.0,8.0,69,0.00,,,0.00,357,Wunderground v.1.15,2013-10-09 17:35:00,
2013-10-09 13:40:00,61.3,51.8,30.38,NNE,30,8.0,12.0,71,0.00,,,0.00,334,Wunderground v.1.15,2013-10-09 17:40:00,
2013-10-09 13:45:00,61.2,51.7,30.38,ESE,116,8.0,12.0,71,0.00,,,0.00,656,Wunderground v.1.15,2013-10-09 17:45:00,
2013-10-09 13:50:00,61.4,51.9,30.37,ENE,67,9.0,9.0,71,0.00,,,0.00,450,Wunderground v.1.15,2013-10-09 17:50:00,
2013-10-09 13:55:00,61.7,52.2,30.37,NE,44,7.0,9.0,71,0.00,,,0.00,636,Wunderground v.1.15,2013-10-09 17:55:00,
2013-10-09 14:00:00,62.0,52.9,30.37,East,91,6.0,13.0,72,0.00,,,0.00,394,Wunderground v.1.15,2013-10-09 18:00:00,
2013-10-09 14:05:00,62.1,52.6,30.37,ENE,73,6.0,13.0,71,0.00,,,0.00,253,Wunderground v.1.15,2013-10-09 18:05:00,
2013-10-09 14:10:00,62.1,53.0,30.37,East,99,4.0,4.0,72,0.00,,,0.00,246,Wunderground v.1.15,2013-10-09 18:10:00,
2013-10-09 14:15:00,61.9,52.0,30.37,NE,48,6.0,7.0,70,0.00,,,0.00,316,Wunderground v.1.15,2013-10-09 18:15:00,
2013-10-09 14:20:00,61.7,51.8,30.37,East,89,8.0,13.0,70,0.00,,,0.00,548,Wunderground v.1.15,2013-10-09 18:20:00,
2013-10-09 14:25:00,61.7,52.2,30.37,NE,38,9.0,13.0,71,0.00,,,0.00,274,Wunderground v.1.15,2013-10-09 18:25:00,
2013-10-09 14:30:00,61.6,51.7,30.37,NE,45,8.0,8.0,70,0.00,,,0.00,251,Wunderground v.1.15,2013-10-09 18:30:00,
2013-10-09 14:35:00,61.5,52.0,30.37,East,81,6.0,10.0,71,0.00,,,0.00,306,Wunderground v.1.15,2013-10-09 18:35:00,
2013-10-09 14:40:00,61.5,52.0,30.37,ESE,109,6.0,7.0,71,0.00,,,0.00,366,Wunderground v.1.15,2013-10-09 18:40:00,
2013-10-09 14:45:00,61.6,52.1,30.37,East,99,7.0,8.0,71,0.00,,,0.00,304,Wunderground v.1.15,2013-10-09 18:45:00,
2013-10-09 14:50:00,61.7,52.2,30.36,ENE,62,6.0,6.0,71,0.00,,,0.00,295,Wunderground v.1.15,2013-10-09 18:50:00,
2013-10-09 14:55:00,61.7,51.8,30.36,East,80,5.0,10.0,70,0.00,,,0.00,302,Wunderground v.1.15,2013-10-09 18:55:00,
2013-10-09 15:00:00,61.7,51.4,30.37,ENE,68,6.0,11.0,69,0.00,,,0.00,274,Wunderground v.1.15,2013-10-09 19:00:00,
2013-10-09 15:05:00,61.7,51.4,30.36,ENE,66,7.0,11.0,69,0.00,,,0.00,464,Wunderground v.1.15,2013-10-09 19:05:00,
2013-10-09 15:10:00,62.0,52.1,30.36,ENE,77,6.0,6.0,70,0.00,,,0.00,285,Wunderground v.1.15,2013-10-09 19:10:00,
2013-10-09 15:15:00,62.2,51.9,30.36,ESE,105,6.0,14.0,69,0.00,,,0.00,234,Wunderground v.1.15,2013-10-09 19:15:00,
2013-10-09 15:20:00,62.0,51.3,30.36,East,91,8.0,10.0,68,0.00,,,0.00,336,Wunderground v.1.15,2013-10-09 19:20:00,
2013-10-09 15:25:00,61.9,51.2,30.36,East,98,7.0,11.0,68,0.00,,,0.00,186,Wunderground v.1.15,2013-10-09 19:25:00,
2013-10-09 15:30:00,61.8,51.1,30.36,ENE,59,6.0,6.0,68,0.00,,,0.00,236,Wunderground v.1.15,2013-10-09 19:30:00,
2013-10-09 15:35:00,61.7,51.0,30.36,ENE,64,7.0,7.0,68,0.00,,,0.00,265,Wunderground v.1.15,2013-10-09 19:35:00,
2013-10-09 15:40:00,61.6,50.9,30.36,NE,48,6.0,13.0,68,0.00,,,0.00,269,Wunderground v.1.15,2013-10-09 19:40:00,
2013-10-09 15:45:00,61.5,51.2,30.36,ENE,73,6.0,13.0,69,0.00,,,0.00,243,Wunderground v.1.15,2013-10-09 19:45:00,
2013-10-09 15:50:00,61.7,51.4,30.35,NNE,17,5.0,9.0,69,0.00,,,0.00,241,Wunderground v.1.15,2013-10-09 19:50:00,
2013-10-09 15:55:00,61.6,50.9,30.35,ESE,105,5.0,9.0,68,0.00,,,0.00,251,Wunderground v.1.15,2013-10-09 19:55:00,
2013-10-09 16:00:00,61.6,51.3,30.36,NNE,17,6.0,6.0,69,0.00,,,0.00,214,Wunderground v.1.15,2013-10-09 20:00:00,
2013-10-09 16:05:00,61.7,51.4,30.36,SE,126,5.0,8.0,69,0.00,,,0.00,209,Wunderground v.1.15,2013-10-09 20:05:00,
2013-10-09 16:10:00,61.6,51.3,30.36,NNE,19,4.0,4.0,69,0.00,,,0.00,195,Wunderground v.1.15,2013-10-09 20:10:00,
2013-10-09 16:15:00,61.5,51.2,30.35,East,80,4.0,5.0,69,0.00,,,0.00,186,Wunderground v.1.15,2013-10-09 20:15:00,
2013-10-09 16:20:00,61.4,51.5,30.36,ENE,69,4.0,7.0,70,0.00,,,0.00,178,Wunderground v.1.15,2013-10-09 20:20:00,
2013-10-09 16:25:00,61.5,51.6,30.35,East,91,5.0,7.0,70,0.00,,,0.00,162,Wunderground v.1.15,2013-10-09 20:25:00,
2013-10-09 16:30:00,61.4,50.7,30.35,East,86,5.0,5.0,68,0.00,,,0.00,151,Wunderground v.1.15,2013-10-09 20:30:00,
2013-10-09 16:35:00,61.4,50.7,30.35,East,101,5.0,5.0,68,0.00,,,0.00,139,Wunderground v.1.15,2013-10-09 20:35:00,
2013-10-09 16:40:00,61.3,50.6,30.35,ENE,74,5.0,5.0,68,0.00,,,0.00,130,Wunderground v.1.15,2013-10-09 20:40:00,
2013-10-09 16:45:00,61.2,50.9,30.35,NE,53,4.0,5.0,69,0.00,,,0.00,121,Wunderground v.1.15,2013-10-09 20:45:00,
2013-10-09 16:50:00,61.1,50.8,30.35,ENE,74,3.0,3.0,69,0.00,,,0.00,111,Wunderground v.1.15,2013-10-09 20:50:00,
2013-10-09 16:55:00,61.1,50.8,30.35,NNE,24,3.0,5.0,69,0.00,,,0.00,102,Wunderground v.1.15,2013-10-09 20:55:00,
2013-10-09 17:00:00,61.0,51.1,30.35,ENE,72,3.0,5.0,70,0.00,,,0.00,91,Wunderground v.1.15,2013-10-09 21:00:00,
2013-10-09 17:05:00,60.9,51.4,30.35,ENE,63,2.0,5.0,71,0.00,,,0.00,84,Wunderground v.1.15,2013-10-09 21:05:00,
2013-10-09 17:10:00,60.9,51.4,30.34,ENE,63,2.0,4.0,71,0.00,,,0.00,81,Wunderground v.1.15,2013-10-09 21:10:00,
2013-10-09 17:15:00,60.8,51.3,30.34,ENE,59,2.0,4.0,71,0.00,,,0.00,76,Wunderground v.1.15,2013-10-09 21:15:00,
2013-10-09 17:20:00,60.7,51.2,30.34,East,92,2.0,2.0,71,0.00,,,0.00,70,Wunderground v.1.15,2013-10-09 21:20:00,
2013-10-09 17:25:00,60.6,51.1,30.34,East,92,1.0,2.0,71,0.00,,,0.00,62,Wunderground v.1.15,2013-10-09 21:25:00,
2013-10-09 17:30:00,60.5,51.4,30.34,ENE,63,1.0,3.0,72,0.00,,,0.00,54,Wunderground v.1.15,2013-10-09 21:30:00,
2013-10-09 17:35:00,60.4,51.3,30.34,East,94,1.0,3.0,72,0.00,,,0.00,47,Wunderground v.1.15,2013-10-09 21:35:00,
2013-10-09 17:40:00,60.3,51.2,30.34,East,90,1.0,2.0,72,0.00,,,0.00,44,Wunderground v.1.15,2013-10-09 21:40:00,
2013-10-09 17:45:00,60.3,51.6,30.34,ESE,107,1.0,2.0,73,0.00,,,0.00,37,Wunderground v.1.15,2013-10-09 21:45:00,
2013-10-09 17:50:00,60.2,51.9,30.34,ENE,73,1.0,1.0,74,0.00,,,0.00,32,Wunderground v.1.15,2013-10-09 21:50:00,
2013-10-09 17:55:00,60.1,51.4,30.33,ENE,73,1.0,1.0,73,0.00,,,0.00,25,Wunderground v.1.15,2013-10-09 21:55:00,
2013-10-09 18:00:00,59.9,51.2,30.33,East,92,1.0,5.0,73,0.00,,,0.00,19,Wunderground v.1.15,2013-10-09 22:00:00,
2013-10-09 18:05:00,59.8,51.5,30.33,East,92,2.0,5.0,74,0.00,,,0.00,14,Wunderground v.1.15,2013-10-09 22:05:00,
2013-10-09 18:10:00,59.7,51.4,30.33,East,92,1.0,1.0,74,0.00,,,0.00,9,Wunderground v.1.15,2013-10-09 22:10:00,
2013-10-09 18:15:00,59.6,51.7,30.33,ENE,64,0.0,1.0,75,0.00,,,0.00,7,Wunderground v.1.15,2013-10-09 22:15:00,
2013-10-09 18:20:00,59.5,51.6,30.33,ENE,64,0.0,0.0,75,0.00,,,0.00,0,Wunderground v.1.15,2013-10-09 22:20:00,
2013-10-09 18:25:00,59.5,51.6,30.33,ENE,64,0.0,0.0,75,0.00,,,0.00,0,Wunderground v.1.15,2013-10-09 22:25:00,
2013-10-09 18:30:00,59.3,51.4,30.34,ENE,64,0.0,0.0,75,0.00,,,0.00,0,Wunderground v.1.15,2013-10-09 22:30:00,
2013-10-09 18:35:00,59.1,51.5,30.34,ENE,64,0.0,0.0,76,0.00,,,0.00,0,Wunderground v.1.15,2013-10-09 22:35:00,
2013-10-09 18:40:00,58.9,51.3,30.34,ENE,64,0.0,2.0,76,0.00,,,0.00,0,Wunderground v.1.15,2013-10-09 22:40:00,
2013-10-09 18:45:00,58.7,51.5,30.34,ENE,64,0.0,2.0,77,0.00,,,0.00,0,Wunderground v.1.15,2013-10-09 22:45:00,
2013-10-09 18:50:00,58.5,51.3,30.34,ENE,64,0.0,0.0,77,0.00,,,0.00,0,Wunderground v.1.15,2013-10-09 22:50:00,
2013-10-09 18:55:00,58.3,51.5,30.34,ENE,64,0.0,0.0,78,0.00,,,0.00,0,Wunderground v.1.15,2013-10-09 22:55:00,
2013-10-09 19:00:00,58.1,51.3,30.34,ENE,64,0.0,0.0,78,0.00,,,0.00,0,Wunderground v.1.15,2013-10-09 23:00:00,
2013-10-09 19:05:00,57.9,51.1,30.34,ENE,64,0.0,0.0,78,0.00,,,0.00,0,Wunderground v.1.15,2013-10-09 23:05:00,
2013-10-09 19:10:00,57.7,50.9,30.34,ENE,64,0.0,0.0,78,0.00,,,0.00,0,Wunderground v.1.15,2013-10-09 23:10:00,
2013-10-09 19:15:00,57.4,50.6,30.34,ENE,64,0.0,0.0,78,0.00,,,0.00,0,Wunderground v.1.15,2013-10-09 23:15:00,
2013-10-09 19:20:00,57.2,50.7,30.33,ENE,64,0.0,0.0,79,0.00,,,0.00,0,Wunderground v.1.15,2013-10-09 23:20:00,
2013-10-09 19:30:00,56.8,50.7,30.33,ENE,64,0.0,0.0,80,0.00,,,0.00,0,Wunderground v.1.15,2013-10-09 23:30:00,
2013-10-09 19:35:00,56.5,50.4,30.33,ENE,64,0.0,0.0,80,0.00,,,0.00,0,Wunderground v.1.15,2013-10-09 23:35:00,
2013-10-09 19:40:00,56.3,50.5,30.33,ENE,64,0.0,0.0,81,0.00,,,0.00,0,Wunderground v.1.15,2013-10-09 23:40:00,
2013-10-09 19:45:00,56.0,50.3,30.33,ENE,64,0.0,0.0,81,0.00,,,0.00,0,Wunderground v.1.15,2013-10-09 23:45:00,
2013-10-09 19:50:00,55.8,50.1,30.33,ENE,64,0.0,0.0,81,0.00,,,0.00,0,Wunderground v.1.15,2013-10-09 23:50:00,
2013-10-09 19:55:00,55.6,50.2,30.33,ENE,64,0.0,0.0,82,0.00,,,0.00,0,Wunderground v.1.15,2013-10-09 23:55:00,
2013-10-09 20:00:00,55.4,50.0,30.33,ENE,64,0.0,0.0,82,0.00,,,0.00,0,Wunderground v.1.15,2013-10-10 00:00:00,
2013-10-09 20:05:00,55.2,49.8,30.32,ENE,64,0.0,0.0,82,0.00,,,0.00,0,Wunderground v.1.15,2013-10-10 00:05:00,
2013-10-09 20:10:00,54.9,49.8,30.33,ENE,64,0.0,0.0,83,0.00,,,0.00,0,Wunderground v.1.15,2013-10-10 00:10:00,
2013-10-09 20:15:00,54.7,49.6,30.33,ENE,64,1.0,4.0,83,0.00,,,0.00,0,Wunderground v.1.15,2013-10-10 00:15:00,
2013-10-09 20:20:00,54.4,49.3,30.33,ENE,65,1.0,2.0,83,0.00,,,0.00,0,Wunderground v.1.15,2013-10-10 00:20:00,
2013-10-09 20:25:00,54.2,49.5,30.32,ENE,65,1.0,2.0,84,0.00,,,0.00,0,Wunderground v.1.15,2013-10-10 00:25:00,
2013-10-09 20:30:00,54.0,49.3,30.33,ENE,65,0.0,0.0,84,0.00,,,0.00,0,Wunderground v.1.15,2013-10-10 00:30:00,
2013-10-09 20:35:00,53.9,49.2,30.33,ENE,65,0.0,0.0,84,0.00,,,0.00,0,Wunderground v.1.15,2013-10-10 00:35:00,
2013-10-09 20:40:00,53.8,49.4,30.32,ENE,65,0.0,0.0,85,0.00,,,0.00,0,Wunderground v.1.15,2013-10-10 00:40:00,
2013-10-09 20:45:00,53.7,49.3,30.33,ENE,65,0.0,0.0,85,0.00,,,0.00,0,Wunderground v.1.15,2013-10-10 00:45:00,
2013-10-09 20:50:00,53.7,49.3,30.33,ENE,65,0.0,0.0,85,0.00,,,0.00,0,Wunderground v.1.15,2013-10-10 00:50:00,
2013-10-09 20:55:00,53.6,49.5,30.33,ENE,65,0.0,0.0,86,0.00,,,0.00,0,Wunderground v.1.15,2013-10-10 00:55:00,
2013-10-09 21:00:00,53.6,49.5,30.33,ENE,65,0.0,0.0,86,0.00,,,0.00,0,Wunderground v.1.15,2013-10-10 01:00:00,
2013-10-09 21:05:00,53.6,49.5,30.33,ENE,65,0.0,0.0,86,0.00,,,0.00,0,Wunderground v.1.15,2013-10-10 01:05:00,
2013-10-09 21:10:00,53.5,49.4,30.33,ENE,65,0.0,2.0,86,0.00,,,0.00,0,Wunderground v.1.15,2013-10-10 01:10:00,
2013-10-09 21:15:00,53.5,49.4,30.33,ENE,65,1.0,2.0,86,0.00,,,0.00,0,Wunderground v.1.15,2013-10-10 01:15:00,
2013-10-09 21:20:00,53.5,49.4,30.32,ENE,69,1.0,3.0,86,0.00,,,0.00,0,Wunderground v.1.15,2013-10-10 01:20:00,
2013-10-09 21:25:00,53.5,49.4,30.32,ENE,70,1.0,4.0,86,0.00,,,0.00,0,Wunderground v.1.15,2013-10-10 01:25:00,
2013-10-09 21:30:00,53.6,49.5,30.32,ESE,113,2.0,2.0,86,0.00,,,0.00,0,Wunderground v.1.15,2013-10-10 01:30:00,
2013-10-09 21:35:00,53.7,49.6,30.32,ESE,112,1.0,2.0,86,0.00,,,0.00,0,Wunderground v.1.15,2013-10-10 01:35:00,
2013-10-09 21:40:00,53.9,49.8,30.32,East,88,2.0,2.0,86,0.00,,,0.00,0,Wunderground v.1.15,2013-10-10 01:40:00,
2013-10-09 21:45:00,54.1,49.7,30.32,East,100,3.0,3.0,85,0.00,,,0.00,0,Wunderground v.1.15,2013-10-10 01:45:00,
2013-10-09 21:50:00,54.2,49.8,30.32,East,90,2.0,2.0,85,0.00,,,0.00,0,Wunderground v.1.15,2013-10-10 01:50:00,
2013-10-09 21:55:00,54.4,49.7,30.32,ESE,107,2.0,2.0,84,0.00,,,0.00,0,Wunderground v.1.15,2013-10-10 01:55:00,
2013-10-09 22:00:00,54.5,49.8,30.32,East,98,2.0,2.0,84,0.00,,,0.00,0,Wunderground v.1.15,2013-10-10 02:00:00,
2013-10-09 22:05:00,54.6,49.9,30.32,East,99,1.0,6.0,84,0.00,,,0.00,0,Wunderground v.1.15,2013-10-10 02:05:00,
2013-10-09 22:10:00,54.6,49.5,30.32,ESE,104,2.0,2.0,83,0.00,,,0.00,0,Wunderground v.1.15,2013-10-10 02:10:00,
2013-10-09 22:15:00,54.7,49.6,30.32,ESE,102,2.0,2.0,83,0.00,,,0.00,0,Wunderground v.1.15,2013-10-10 02:15:00,
2013-10-09 22:20:00,54.8,49.7,30.32,ESE,102,1.0,1.0,83,0.00,,,0.00,0,Wunderground v.1.15,2013-10-10 02:20:00,
2013-10-09 22:25:00,54.8,49.4,30.31,ESE,102,1.0,1.0,82,0.00,,,0.00,0,Wunderground v.1.15,2013-10-10 02:25:00,
2013-10-09 22:30:00,54.8,49.4,30.31,ESE,103,1.0,1.0,82,0.00,,,0.00,0,Wunderground v.1.15,2013-10-10 02:30:00,
2013-10-09 22:35:00,54.8,49.7,30.32,ESE,102,1.0,1.0,83,0.00,,,0.00,0,Wunderground v.1.15,2013-10-10 02:35:00,
2013-10-09 22:40:00,54.8,49.4,30.32,ESE,102,0.0,0.0,82,0.00,,,0.00,0,Wunderground v.1.15,2013-10-10 02:40:00,
2013-10-09 22:45:00,54.7,49.3,30.31,ESE,102,0.0,0.0,82,0.00,,,0.00,0,Wunderground v.1.15,2013-10-10 02:45:00,
2013-10-09 22:50:00,54.6,49.2,30.31,ESE,102,0.0,4.0,82,0.00,,,0.00,0,Wunderground v.1.15,2013-10-10 02:50:00,
2013-10-09 22:55:00,54.5,49.1,30.31,ESE,102,0.0,4.0,82,0.00,,,0.00,0,Wunderground v.1.15,2013-10-10 02:55:00,
2013-10-09 23:00:00,54.4,49.0,30.31,ESE,102,0.0,0.0,82,0.00,,,0.00,0,Wunderground v.1.15,2013-10-10 03:00:00,
2013-10-09 23:05:00,54.2,48.8,30.31,ESE,102,0.0,0.0,82,0.00,,,0.00,0,Wunderground v.1.15,2013-10-10 03:05:00,
2013-10-09 23:10:00,54.1,48.7,30.31,ESE,102,0.0,0.0,82,0.00,,,0.00,0,Wunderground v.1.15,2013-10-10 03:10:00,
2013-10-09 23:15:00,53.9,48.5,30.31,ESE,102,0.0,0.0,82,0.00,,,0.00,0,Wunderground v.1.15,2013-10-10 03:15:00,
2013-10-09 23:20:00,53.8,48.4,30.31,ESE,102,0.0,0.0,82,0.00,,,0.00,0,Wunderground v.1.15,2013-10-10 03:20:00,
2013-10-09 23:25:00,53.6,48.2,30.31,ESE,102,0.0,0.0,82,0.00,,,0.00,0,Wunderground v.1.15,2013-10-10 03:25:00,
2013-10-09 23:30:00,53.4,48.0,30.31,ESE,102,0.0,0.0,82,0.00,,,0.00,0,Wunderground v.1.15,2013-10-10 03:30:00,
2013-10-09 23:35:00,53.2,47.8,30.32,ESE,102,0.0,0.0,82,0.00,,,0.00,0,Wunderground v.1.15,2013-10-10 03:35:00,
2013-10-09 23:40:00,53.0,48.0,30.32,ESE,102,0.0,0.0,83,0.00,,,0.00,0,Wunderground v.1.15,2013-10-10 03:40:00,
2013-10-09 23:45:00,52.7,47.7,30.32,ESE,102,0.0,0.0,83,0.00,,,0.00,0,Wunderground v.1.15,2013-10-10 03:45:00,
2013-10-09 23:50:00,52.5,47.5,30.32,ESE,102,0.0,0.0,83,0.00,,,0.00,0,Wunderground v.1.15,2013-10-10 03:50:00,
2013-10-09 23:55:00,52.3,47.6,30.31,ESE,102,0.0,1.0,84,0.00,,,0.00,0,Wunderground v.1.15,2013-10-10 03:55:00,